FW4741 Weather Reports


time (UTC)temp
C
wind
direction
speed
KPH
gust
KPH
rain 1hr
cm
rain 24hr
cm
rain mn
cm
humidity
%
barometer
mb
20200229080104 11 31 0.0 0.0 0.00 0.00 0.00 79 1025.7
20200229075603 11 0 0.0 0.0 0.00 0.00 0.00 78 1025.7
20200229075103 11 0 0.0 3.2 0.00 0.00 0.00 78 1025.7
20200229074603 11 59 0.0 8.0 0.00 0.00 0.00 78 1025.7
20200229074104 11 69 0.0 8.0 0.00 0.00 0.00 79 1025.9
20200229073603 11 59 1.6 8.0 0.00 0.00 0.00 80 1026.1
20200229073104 11 43 0.0 0.0 0.00 0.00 0.00 80 1025.9
20200229072603 12 332 0.0 0.0 0.00 0.00 0.00 78 1026.0
20200229072103 12 64 0.0 0.0 0.00 0.00 0.00 78 1026.1
20200229071604 12 38 0.0 0.0 0.00 0.00 0.00 77 1026.1
20200229071103 12 18 0.0 0.0 0.00 0.00 0.00 77 1026.1
20200229070603 12 72 0.0 0.0 0.00 0.00 0.00 78 1026.1
20200229070104 12 347 0.0 0.0 0.00 0.00 0.00 76 1026.1
20200229065604 12 21 0.0 0.0 0.00 0.00 0.00 76 1026.1
20200229065103 12 17 0.0 0.0 0.00 0.00 0.00 75 1026.1
20200229064603 12 65 0.0 0.0 0.00 0.00 0.00 75 1026.1
20200229064103 12 50 0.0 0.0 0.00 0.00 0.00 76 1026.1
20200229063603 12 66 0.0 0.0 0.00 0.00 0.00 75 1026.3
20200229063104 12 34 0.0 0.0 0.00 0.00 0.00 73 1026.4
20200229062605 12 35 0.0 0.0 0.00 0.00 0.00 73 1026.3
20200229062104 12 112 0.0 0.0 0.00 0.00 0.00 73 1026.4
20200229061604 12 33 0.0 0.0 0.00 0.00 0.00 76 1026.1
20200229061103 13 35 0.0 0.0 0.00 0.00 0.00 75 1026.4
20200229060603 13 28 0.0 0.0 0.00 0.00 0.00 74 1026.4
20200229060104 13 34 0.0 0.0 0.00 0.00 0.00 74 1026.6
20200229055604 13 90 0.0 0.0 0.00 0.00 0.00 74 1026.4
20200229055103 13 89 0.0 0.0 0.00 0.00 0.00 74 1026.4
20200229054603 13 15 0.0 0.0 0.00 0.00 0.00 73 1026.4
20200229054103 14 356 0.0 0.0 0.00 0.00 0.00 71 1026.4
20200229053603 14 154 0.0 0.0 0.00 0.00 0.00 70 1026.4
20200229053103 14 143 0.0 0.0 0.00 0.00 0.00 70 1026.4
20200229052604 14 141 0.0 0.0 0.00 0.00 0.00 71 1026.4
20200229052103 15 51 0.0 0.0 0.00 0.00 0.00 71 1026.4
20200229051604 15 24 0.0 0.0 0.00 0.00 0.00 70 1026.4
20200229051103 15 343 0.0 0.0 0.00 0.00 0.00 69 1026.2
20200229050604 15 3 0.0 0.0 0.00 0.00 0.00 66 1026.1
20200229050104 15 41 0.0 0.0 0.00 0.00 0.00 65 1026.1
20200229045604 15 198 0.0 0.0 0.00 0.00 0.00 66 1026.1
20200229045104 15 253 0.0 0.0 0.00 0.00 0.00 67 1026.1
20200229044603 15 172 0.0 0.0 0.00 0.00 0.00 68 1026.1
20200229044104 15 134 0.0 0.0 0.00 0.00 0.00 69 1026.1
20200229043604 15 4 0.0 0.0 0.00 0.00 0.00 67 1026.1
20200229043106 16 27 0.0 0.0 0.00 0.00 0.00 67 1026.1
20200229042604 16 350 0.0 3.2 0.00 0.00 0.00 66 1025.7
20200229042104 16 80 0.0 3.2 0.00 0.00 0.00 65 1026.1
20200229041603 16 90 1.6 3.2 0.00 0.00 0.00 65 1025.8
20200229041103 16 23 0.0 0.0 0.00 0.00 0.00 64 1025.7
20200229040603 16 50 0.0 0.0 0.00 0.00 0.00 64 1026.0
20200229040104 16 76 0.0 0.0 0.00 0.00 0.00 63 1025.7
20200229035603 16 59 0.0 0.0 0.00 0.00 0.00 63 1025.7
20200229035103 16 33 0.0 0.0 0.00 0.00 0.00 63 1025.7
20200229034603 17 11 0.0 3.2 0.00 0.00 0.00 63 1025.7
20200229034104 17 144 0.0 3.2 0.00 0.00 0.00 63 1025.7
20200229033604 17 79 0.0 3.2 0.00 0.00 0.00 62 1025.7
20200229033104 17 74 0.0 3.2 0.00 0.00 0.00 61 1025.7
20200229032603 17 58 3.2 3.2 0.00 0.00 0.00 61 1025.4
20200229032104 17 18 1.6 3.2 0.00 0.00 0.00 60 1025.4
20200229031604 17 125 1.6 3.2 0.00 0.00 0.00 61 1025.4
20200229031104 17 84 1.6 8.0 0.00 0.00 0.00 61 1025.4
20200229030604 17 55 0.0 8.0 0.00 0.00 0.00 61 1025.4
20200229030104 17 52 1.6 8.0 0.00 0.00 0.00 61 1025.1
20200229025604 17 32 3.2 11.3 0.00 0.00 0.00 60 1025.1
20200229025104 17 42 4.8 11.3 0.00 0.00 0.00 60 1025.1
20200229024603 17 75 4.8 8.0 0.00 0.00 0.00 60 1025.1
20200229024104 17 41 3.2 8.0 0.00 0.00 0.00 60 1024.9
20200229023604 18 36 3.2 8.0 0.00 0.00 0.00 60 1025.1
20200229023104 18 44 3.2 8.0 0.00 0.00 0.00 60 1025.0
20200229022604 18 77 6.4 11.3 0.00 0.00 0.00 59 1024.7
20200229022104 18 42 1.6 11.3 0.00 0.00 0.00 58 1024.7
20200229021605 19 62 8.0 11.3 0.00 0.00 0.00 58 1024.7
20200229020604 19 31 1.6 11.3 0.00 0.00 0.00 58 1024.4
20200229020104 20 44 1.6 8.0 0.00 0.00 0.00 57 1024.4
20200229015605 20 12 1.6 11.3 0.00 0.00 0.00 57 1024.4
20200229014104 20 27 6.4 11.3 0.00 0.00 0.00 56 1024.0
20200229013604 21 49 4.8 11.3 0.00 0.00 0.00 56 1024.0
20200229013104 21 49 8.0 11.3 0.00 0.00 0.00 55 1024.0
20200229012604 22 37 4.8 8.0 0.00 0.00 0.00 55 1023.9
20200229012103 22 16 1.6 8.0 0.00 0.00 0.00 54 1023.7
20200229011605 22 125 0.0 3.2 0.00 0.00 0.00 48 1023.7
20200229011104 23 8 0.0 3.2 0.00 0.00 0.00 47 1023.7
20200229010603 23 59 0.0 11.3 0.00 0.00 0.00 45 1023.7
20200229010104 23 15 1.6 11.3 0.00 0.00 0.00 45 1023.7
20200229005604 23 307 4.8 11.3 0.00 0.00 0.00 43 1023.7
20200229005104 23 351 1.6 11.3 0.00 0.00 0.00 43 1023.7
20200229004603 23 181 3.2 11.3 0.00 0.00 0.00 43 1023.4
20200229004104 23 223 3.2 11.3 0.00 0.00 0.00 43 1023.4
20200229003604 23 248 1.6 11.3 0.00 0.00 0.00 43 1023.4
20200229003104 23 64 0.0 11.3 0.00 0.00 0.00 42 1023.4
20200229002603 24 220 8.0 16.1 0.00 0.00 0.00 42 1023.4
20200229002104 24 294 3.2 16.1 0.00 0.00 0.00 42 1023.4
20200229001603 24 218 11.3 20.9 0.00 0.00 0.00 42 1023.4
20200229001105 24 245 8.0 24.1 0.00 0.00 0.00 42 1023.4
20200229000604 25 214 14.5 24.1 0.00 0.00 0.00 42 1023.4
20200229000104 25 226 9.7 24.1 0.00 0.00 0.00 41 1023.4
20200228235604 25 293 4.8 20.9 0.00 0.00 0.00 40 1023.4
20200228235103 24 236 11.3 20.9 0.00 0.00 0.00 41 1023.1
20200228234605 24 254 8.0 20.9 0.00 0.00 0.00 41 1023.0
20200228234103 25 238 14.5 20.9 0.00 0.00 0.00 41 1023.0
20200228233604 25 221 8.0 16.1 0.00 0.00 0.00 41 1023.0
20200228233104 25 237 11.3 24.1 0.00 0.00 0.00 41 1023.0
20200228232605 25 231 11.3 27.4 0.00 0.00 0.00 41 1023.0
20200228232104 25 255 20.9 27.4 0.00 0.00 0.00 41 1023.4
20200228231604 25 266 14.5 27.4 0.00 0.00 0.00 41 1023.0
20200228231103 25 263 14.5 27.4 0.00 0.00 0.00 41 1023.0
20200228230603 25 241 11.3 24.1 0.00 0.00 0.00 40 1023.0
20200228230105 25 256 9.7 24.1 0.00 0.00 0.00 40 1023.0
20200228225604 25 253 11.3 20.9 0.00 0.00 0.00 40 1023.0
20200228225104 25 279 8.0 20.9 0.00 0.00 0.00 41 1023.0
20200228224603 25 271 14.5 20.9 0.00 0.00 0.00 41 1022.7
20200228224104 25 235 14.5 24.1 0.00 0.00 0.00 41 1023.0
20200228223604 25 225 14.5 24.1 0.00 0.00 0.00 41 1023.0
20200228223105 25 245 4.8 24.1 0.00 0.00 0.00 41 1022.7
20200228222604 25 241 17.7 24.1 0.00 0.00 0.00 42 1023.0
20200228222104 25 242 16.1 24.1 0.00 0.00 0.00 41 1022.7
20200228221604 25 229 12.9 24.1 0.00 0.00 0.00 41 1022.7
20200228221104 25 190 11.3 27.4 0.00 0.00 0.00 42 1022.7
20200228220604 26 262 16.1 27.4 0.00 0.00 0.00 41 1023.0
20200228220103 26 247 19.3 27.4 0.00 0.00 0.00 41 1023.0
20200228215603 26 269 14.5 27.4 0.00 0.00 0.00 41 1023.0
20200228215105 26 243 8.0 24.1 0.00 0.00 0.00 41 1022.7
20200228214604 26 241 14.5 27.4 0.00 0.00 0.00 43 1023.0
20200228214104 26 229 9.7 27.4 0.00 0.00 0.00 42 1023.0
20200228213604 26 278 12.9 27.4 0.00 0.00 0.00 41 1023.0
20200228213104 26 263 20.9 27.4 0.00 0.00 0.00 41 1023.0
20200228212603 26 215 17.7 24.1 0.00 0.00 0.00 42 1023.0
20200228211604 26 280 9.7 27.4 0.00 0.00 0.00 42 1023.0
20200228211104 26 293 17.7 27.4 0.00 0.00 0.00 42 1023.4
20200228210604 26 270 14.5 35.4 0.00 0.00 0.00 41 1023.1
20200228210105 26 269 9.7 35.4 0.00 0.00 0.00 41 1023.1
20200228205604 26 280 11.3 24.1 0.00 0.00 0.00 40 1023.4
20200228205104 26 306 11.3 27.4 0.00 0.00 0.00 41 1023.3
20200228204604 26 279 11.3 27.4 0.00 0.00 0.00 42 1023.4
20200228204104 26 267 8.0 27.4 0.00 0.00 0.00 41 1023.4
20200228203604 26 240 9.7 24.1 0.00 0.00 0.00 40 1023.4
20200228203104 26 256 12.9 24.1 0.00 0.00 0.00 40 1023.4
20200228202604 25 297 14.5 24.1 0.00 0.00 0.00 41 1023.6
20200228202103 25 279 16.1 27.4 0.00 0.00 0.00 42 1023.7
20200228201104 25 258 20.9 35.4 0.00 0.00 0.00 42 1023.7
20200228200603 25 255 9.7 35.4 0.00 0.00 0.00 41 1023.7
20200228200103 25 266 16.1 35.4 0.00 0.00 0.00 41 1024.0
20200228195604 25 259 11.3 24.1 0.00 0.00 0.00 42 1024.0
20200228195103 25 253 12.9 24.1 0.00 0.00 0.00 42 1023.9
20200228194604 25 265 14.5 24.1 0.00 0.00 0.00 41 1024.0
20200228194103 25 275 14.5 24.1 0.00 0.00 0.00 41 1024.0
20200228193603 25 255 17.7 24.1 0.00 0.00 0.00 41 1024.0
20200228193103 25 270 14.5 24.1 0.00 0.00 0.00 42 1024.0
20200228192605 25 248 17.7 27.4 0.00 0.00 0.00 41 1024.0
20200228192103 25 280 16.1 27.4 0.00 0.00 0.00 40 1024.0
20200228191604 25 259 12.9 24.1 0.00 0.00 0.00 40 1024.0
20200228191106 25 264 14.5 24.1 0.00 0.00 0.00 41 1024.3
20200228190605 25 257 14.5 27.4 0.00 0.00 0.00 41 1024.4
20200228185604 24 270 19.3 27.4 0.00 0.00 0.00 42 1024.4
20200228185104 24 251 12.9 27.4 0.00 0.00 0.00 42 1024.4
20200228184603 25 241 14.5 24.1 0.00 0.00 0.00 41 1024.4
20200228184103 24 235 16.1 24.1 0.00 0.00 0.00 41 1024.7
20200228183604 24 245 16.1 27.4 0.00 0.00 0.00 41 1024.7
20200228183104 24 229 12.9 27.4 0.00 0.00 0.00 42 1024.9
20200228182604 24 234 20.9 27.4 0.00 0.00 0.00 43 1024.7
20200228182104 24 278 11.3 27.4 0.00 0.00 0.00 41 1025.1
20200228181604 24 288 12.9 27.4 0.00 0.00 0.00 41 1024.9
20200228181105 24 257 17.7 27.4 0.00 0.00 0.00 40 1025.1
20200228180604 24 260 14.5 27.4 0.00 0.00 0.00 40 1025.1
20200228180104 24 241 17.7 27.4 0.00 0.00 0.00 41 1025.1
20200228175604 24 265 11.3 32.2 0.00 0.00 0.00 42 1025.1
20200228175105 24 269 8.0 32.2 0.00 0.00 0.00 40 1025.1
20200228174604 24 255 16.1 32.2 0.00 0.00 0.00 42 1025.1
20200228174104 24 249 20.9 27.4 0.00 0.00 0.00 42 1025.1
20200228173604 24 232 11.3 20.9 0.00 0.00 0.00 42 1025.4
20200228173104 23 215 11.3 16.1 0.00 0.00 0.00 41 1025.4
20200228172604 23 318 6.4 16.1 0.00 0.00 0.00 40 1025.4
20200228172104 23 225 9.7 16.1 0.00 0.00 0.00 40 1025.4
20200228171604 23 247 4.8 11.3 0.00 0.00 0.00 39 1025.4
20200228171104 23 183 4.8 11.3 0.00 0.00 0.00 41 1025.7
20200228170604 22 214 6.4 20.9 0.00 0.00 0.00 43 1025.7
20200228170104 22 202 4.8 20.9 0.00 0.00 0.00 42 1025.5
20200228165104 22 250 8.0 11.3 0.00 0.00 0.00 45 1025.7
20200228164604 22 207 9.7 11.3 0.00 0.00 0.00 45 1025.7
20200228164104 21 216 4.8 11.3 0.00 0.00 0.00 48 1025.7
20200228163604 21 260 4.8 16.1 0.00 0.00 0.00 47 1025.7
20200228163104 21 235 9.7 16.1 0.00 0.00 0.00 49 1025.7
20200228162604 21 231 9.7 16.1 0.00 0.00 0.00 49 1025.7
20200228162104 20 271 6.4 11.3 0.00 0.00 0.00 51 1025.7
20200228161605 20 208 4.8 11.3 0.00 0.00 0.00 53 1025.7
20200228161104 20 229 8.0 11.3 0.00 0.00 0.00 54 1025.7
20200228160603 20 246 9.7 11.3 0.00 0.00 0.00 54 1025.7
20200228160104 20 225 3.2 11.3 0.00 0.00 0.00 55 1025.7
20200228155604 20 267 8.0 11.3 0.00 0.00 0.00 54 1025.9
20200228155104 20 238 8.0 11.3 0.00 0.00 0.00 57 1026.1
20200228154606 19 255 4.8 11.3 0.00 0.00 0.00 53 1025.7
20200228154104 18 257 3.2 8.0 0.00 0.00 0.00 56 1025.7
20200228153604 18 343 1.6 8.0 0.00 0.00 0.00 57 1025.7
20200228153104 18 262 1.6 3.2 0.00 0.00 0.00 55 1025.7
20200228152604 18 279 1.6 3.2 0.00 0.00 0.00 56 1025.7
20200228152105 18 174 0.0 8.0 0.00 0.00 0.00 60 1025.7
20200228151603 18 214 1.6 8.0 0.00 0.00 0.00 61 1025.7
20200228151104 17 158 0.0 0.0 0.00 0.00 0.00 57 1025.7
20200228150605 17 235 0.0 0.0 0.00 0.00 0.00 58 1026.0
20200228150104 16 235 0.0 3.2 0.00 0.00 0.00 60 1025.7
20200228145603 16 116 0.0 3.2 0.00 0.00 0.00 57 1025.7
20200228145104 15 264 1.6 3.2 0.00 0.00 0.00 64 1025.7
20200228144605 15 241 1.6 8.0 0.00 0.00 0.00 66 1025.7
20200228144104 15 264 3.2 8.0 0.00 0.00 0.00 70 1025.7
20200228143604 14 233 3.2 8.0 0.00 0.00 0.00 74 1025.7
20200228143104 14 249 3.2 8.0 0.00 0.00 0.00 74 1025.7
20200228142604 13 262 0.0 3.2 0.00 0.00 0.00 73 1025.7
20200228142104 13 206 0.0 0.0 0.00 0.00 0.00 73 1025.4
20200228141604 12 222 0.0 0.0 0.00 0.00 0.00 68 1025.7
20200228141105 12 228 0.0 0.0 0.00 0.00 0.00 77 1025.4
20200228140604 11 215 0.0 0.0 0.00 0.00 0.00 79 1025.4
20200228140104 11 202 0.0 0.0 0.00 0.00 0.00 81 1025.4
20200228135603 10 44 0.0 0.0 0.00 0.00 0.00 81 1025.4
20200228135104 9 77 0.0 0.0 0.00 0.00 0.00 84 1025.4
20200228134604 9 91 0.0 0.0 0.00 0.00 0.00 88 1025.2
20200228134103 8 66 0.0 0.0 0.00 0.00 0.00 92 1025.1
20200228133104 8 14 0.0 3.2 0.00 0.00 0.00 92 1025.2
20200228132604 9 351 0.0 3.2 0.00 0.00 0.00 91 1025.1
20200228132104 9 4 0.0 3.2 0.00 0.00 0.00 91 1025.1
20200228131604 9 54 0.0 0.0 0.00 0.00 0.00 91 1025.1
20200228131104 9 76 0.0 0.0 0.00 0.00 0.00 92 1025.1
20200228130603 10 69 0.0 0.0 0.00 0.00 0.00 91 1025.1
20200228130103 10 44 0.0 3.2 0.00 0.00 0.00 90 1025.1
20200228125604 10 316 0.0 3.2 0.00 0.00 0.00 89 1024.9
20200228125105 10 180 0.0 3.2 0.00 0.00 0.00 89 1024.7
20200228124604 9 186 0.0 3.2 0.00 0.00 0.00 89 1024.7
20200228124104 9 184 1.6 3.2 0.00 0.00 0.00 90 1024.7
20200228123604 9 333 0.0 3.2 0.00 0.00 0.00 89 1024.7
20200228123104 9 4 0.0 3.2 0.00 0.00 0.00 89 1024.7
20200228122604 9 62 1.6 3.2 0.00 0.00 0.00 90 1024.7
20200228122104 9 58 0.0 0.0 0.00 0.00 0.00 92 1024.6
20200228121603 9 14 0.0 3.2 0.00 0.00 0.00 91 1024.6
20200228121104 10 38 0.0 3.2 0.00 0.00 0.00 91 1024.7
20200228120604 10 11 1.6 3.2 0.00 0.00 0.00 89 1024.4
20200228120104 10 146 0.0 0.0 0.00 0.00 0.00 90 1024.4
20200228115604 10 39 0.0 0.0 0.00 0.00 0.00 89 1024.7
20200228115104 10 28 0.0 0.0 0.00 0.00 0.00 89 1024.7
20200228114604 10 59 0.0 0.0 0.00 0.00 0.00 90 1024.5
20200228114104 10 61 0.0 0.0 0.00 0.00 0.00 90 1024.7
20200228113604 10 14 0.0 0.0 0.00 0.00 0.00 90 1024.4
20200228113104 10 73 0.0 0.0 0.00 0.00 0.00 90 1024.4
20200228112104 10 356 0.0 0.0 0.00 0.00 0.00 89 1024.4
20200228111604 10 15 0.0 0.0 0.00 0.00 0.00 89 1024.4
20200228111104 10 19 0.0 0.0 0.00 0.00 0.00 88 1024.4
20200228110604 11 31 0.0 0.0 0.00 0.00 0.00 87 1024.0
20200228110105 11 17 0.0 0.0 0.00 0.00 0.00 88 1024.4
20200228105604 11 17 0.0 0.0 0.00 0.00 0.00 87 1024.0
20200228105104 11 22 0.0 0.0 0.00 0.00 0.00 87 1024.0
20200228104604 11 62 0.0 0.0 0.00 0.00 0.00 86 1024.0
20200228104104 11 344 0.0 0.0 0.00 0.00 0.00 87 1024.0
20200228103604 11 345 0.0 0.0 0.00 0.00 0.00 86 1024.0
20200228103111 11 345 0.0 0.0 0.00 0.00 0.00 86 1024.0
20200228102604 11 345 0.0 0.0 0.00 0.00 0.00 86 1024.0
20200228102104 11 344 0.0 0.0 0.00 0.00 0.00 85 1024.0
20200228101603 11 338 0.0 0.0 0.00 0.00 0.00 85 1024.0
20200228101104 11 337 0.0 0.0 0.00 0.00 0.00 84 1024.0
20200228100605 11 353 0.0 0.0 0.00 0.00 0.00 84 1024.3
20200228100104 11 356 0.0 0.0 0.00 0.00 0.00 84 1024.0
20200228095104 11 334 0.0 0.0 0.00 0.00 0.00 84 1024.1
20200228094604 11 320 0.0 0.0 0.00 0.00 0.00 84 1024.4
20200228094104 11 124 0.0 0.0 0.00 0.00 0.00 85 1024.4
20200228093604 11 116 0.0 0.0 0.00 0.00 0.00 85 1024.4
20200228093104 11 45 0.0 0.0 0.00 0.00 0.00 84 1024.4
20200228092604 11 34 0.0 0.0 0.00 0.00 0.00 84 1024.4
20200228092104 11 42 0.0 0.0 0.00 0.00 0.00 85 1024.4
20200228091103 11 349 0.0 0.0 0.00 0.00 0.00 84 1024.4
20200228090604 11 343 0.0 0.0 0.00 0.00 0.00 85 1024.4
20200228090104 11 317 0.0 0.0 0.00 0.00 0.00 85 1024.4
20200228085604 11 21 0.0 0.0 0.00 0.00 0.00 84 1024.4
20200228085104 11 160 0.0 0.0 0.00 0.00 0.00 83 1024.4
20200228084604 12 181 0.0 0.0 0.00 0.00 0.00 83 1024.4
20200228084105 12 68 0.0 0.0 0.00 0.00 0.00 83 1024.4
20200228083605 12 79 0.0 0.0 0.00 0.00 0.00 83 1024.4
20200228083104 12 40 0.0 0.0 0.00 0.00 0.00 84 1024.4
20200228082604 12 354 0.0 0.0 0.00 0.00 0.00 82 1024.4
20200228082104 12 324 0.0 0.0 0.00 0.00 0.00 81 1024.4
20200228081604 12 280 0.0 0.0 0.00 0.00 0.00 81 1024.7
20200228081105 12 337 0.0 0.0 0.00 0.00 0.00 82 1024.7
20200228080604 12 337 0.0 0.0 0.00 0.00 0.00 81 1024.7